Volver al catálogo

GLOBALSTAR M014

ActivoComunicacionesLEO
NORAD 25306·PAYLOAD·🇺🇸 United States

Lanzado Apr 24, 1998 desde Cape Canaveral Space Force Station

Loading…

Próximos Pases (próximas 24 horas)

TLE

ActualizadoSource: Space-Track

Época: Sep 14, 2026, 13:46 UTC

1 25306U 98023A   26257.57386928 -.00000076  00000-0  31739-4 0  9999
2 25306  51.9821  94.5602 0001677 101.3719 271.4610 11.65488212244158

Sigue GLOBALSTAR M014 en tiempo real con AllMySat

Download on the App Store